This demonstration page uses our WeatherBlox Daily Observations layout. Learn more.

Left ArrowRight Arrow

Hourly Observations for June 26, 2022

Temp ( °F °C ) Dew Point ( °F °C ) Humidity (%) Winds ( mph kmh ) Pressure ( in mb ) Visibility ( mi km ) Precip ( " mm )
12:56 am 00:56 Clear 62 16.7 46 7.8 56 56 N 14 22 30.28 1025 10 16 0.00 0.00
1:56 am 01:56 Clear 61 16.1 45 7.2 56 56 N 15 24 30.27 1025 10 16 0.00 0.00
2:56 am 02:56 Clear 60 15.6 44 6.7 56 56 NNW 10 17 30.28 1025 10 16 0.00 0.00
3:56 am 03:56 Clear 56 13.3 46 7.8 70 70 WNW 5 7 30.29 1026 10 16 0.00 0.00
4:56 am 04:56 Clear 56 13.3 45 7.2 67 67 NNW 10 17 30.31 1026 10 16 0.00 0.00
5:56 am 05:56 Clear 57 13.9 43 6.1 60 60 N 13 20 30.34 1027 10 16 0.00 0.00
6:56 am 06:56 Sunny 56 13.3 44 6.7 65 65 NNW 6 9 30.38 1029 10 16 0.00 0.00
7:56 am 07:56 Sunny 57 13.9 45 7.2 64 64 NW 5 7 30.41 1030 10 16 0.00 0.00
8:56 am 08:56 Sunny 59 15 45 7.2 60 60 NNW 6 9 30.43 1031 10 16 0.00 0.00
9:56 am 09:56 Sunny 61 16.1 45 7.2 56 56 NNE 3 6 30.45 1031 10 16 0.00 0.00
10:56 am 10:56 Mostly Cloudy 64 17.8 44 6.7 48 48 NNE 3 6 30.44 1031 10 16 0.00 0.00
11:56 am 11:56 Mostly Cloudy 65 18.3 44 6.7 47 47 Calm 30.43 1031 10 16 0.00 0.00
12:56 pm 12:56 Partly Cloudy 68 20 44 6.7 42 42 WNW 8 13 30.42 1030 10 16 0.00 0.00
1:56 pm 13:56 Partly Cloudy with Light Rain 68 20 48 8.9 49 49 WSW 9 15 30.39 1029 10 16 0.00 0.00
2:56 pm 14:56 Sunny 72 22.2 47 8.3 41 41 W 6 9 30.36 1028 10 16 0.00 0.00
3:56 pm 15:56 Sunny 76 24.4 43 6.1 31 31 W 9 15 30.33 1027 10 16 0.00 0.00
4:56 pm 16:56 Sunny 77 25 44 6.7 31 31 NNW 10 17 30.32 1027 10 16 0.00 0.00
5:56 pm 17:56 Sunny 77 25 45 7.2 32 32 NNE 6 9 30.30 1026 10 16 0.00 0.00
6:56 pm 18:56 Sunny 77 25 42 5.6 29 29 N 7 11 30.29 1026 10 16 0.00 0.00
7:56 pm 19:56 Sunny 76 24.4 46 7.8 35 35 NNE 3 6 30.30 1026 10 16 0.00 0.00
8:56 pm 20:56 Sunny 73 22.8 48 8.9 41 41 Calm 30.30 1026 10 16 0.00 0.00
9:56 pm 21:56 Clear 69 20.6 50 10 51 51 SW 6 9 30.32 1027 10 16 0.00 0.00
10:56 pm 22:56 Clear 64 17.8 53 11.7 68 68 Calm 30.35 1028 10 16 0.00 0.00
11:56 pm 23:56 Clear 60 15.6 53 11.7 78 78 ESE 6 9 30.35 1028 10 16 0.00 0.00

Powered by AerisWeather